Topeka, KS

2:34 AM CDT on April 26, 2017 (GMT -0500)
Billard Municipal

Weather History for KTOP - February, 2012

Change the Weather History Date:

Wednesday, February 8, 2012

  Actual Average Record
Temperature  
Mean Temperature 34 °F 32 °F  
Max Temperature 36 °F 43 °F 72 °F (1938)
Min Temperature 31 °F 22 °F -20 °F (1971)
Degree Days  
Heating Degree Days 31 33  
Month to date heating degree days 189 268  
Since 1 July heating degree days 2851 3378  
Cooling Degree Days 0 0  
Month to date cooling degree days 0 0  
Year to date cooling degree days 0 0  
Moisture  
Dew Point 27 °F    
Average Humidity 77    
Maximum Humidity 89    
Minimum Humidity 64    
Precipitation  
Precipitation T in 0.04 in 0.84 in (2001)
Month to date precipitation 1.36 0.33  
Year to date precipitation 1.38 1.19  
Snow  
Snow T in 0.20 in 6.00 in (1901)
Month to date snowfall T 1.5  
Year to date snowfall 0.1 6.4  
Since 1 July snowfall 0.2 12.9  
Snow Depth 0.00 in    
Sea Level Pressure  
Sea Level Pressure 30.47 in    
Wind  
Wind Speed 4 mph (North)    
Max Wind Speed 13 mph    
Max Gust Speed 16 mph    
Visibility 10 miles    
Events      
T = Trace of Precipitation, MM = Missing Value Source: NWS Daily Summary

Daily Weather History Graph

Daily Weather History Graph

Search for Another Location

Airport or City:

Trip Planner

Search our weather history database for the weather conditions in past years. The results will help you decide how hot, cold, wet, or windy it might be!

Date:

Astronomy

Feb. 08, 2012 Rise Set
Actual Time 7:22 AM CST 5:51 PM CST
Civil Twilight 6:54 AM CST 6:19 PM CST
Nautical Twilight 6:23 AM CST 6:50 PM CST
Astronomical Twilight 5:52 AM CST 7:21 PM CST
Moon 7:10 PM CST (2/8) 7:27 AM CST (2/8)
Length of Visible Light 11h 24m
Length of Day
10h 28m
Full, 99% of the Moon is Illuminated
Feb 8
Full
Feb 14
Last Quarter
Feb 21
New
Feb 29
First Quarter
Mar 8
Full

Hourly Weather History & Observations

Time (CST) Temp. Windchill Dew Point Humidity Pressure Visibility Wind Dir Wind Speed Gust Speed Precip Events Conditions
12:53 AM 33.1 °F 26.1 °F 30.0 °F 89% 30.50 in 10.0 mi North 8.1 mph - N/A   Overcast
1:53 AM 33.1 °F 26.9 °F 30.0 °F 89% 30.51 in 10.0 mi NNW 6.9 mph - N/A   Overcast
2:53 AM 33.1 °F 25.5 °F 28.9 °F 85% 30.50 in 10.0 mi North 9.2 mph - N/A   Overcast
3:53 AM 32.0 °F 23.6 °F 28.0 °F 85% 30.50 in 10.0 mi North 10.4 mph - N/A   Overcast
4:53 AM 32.0 °F 25.6 °F 28.0 °F 85% 30.51 in 10.0 mi North 6.9 mph - N/A   Overcast
5:53 AM 32.0 °F 26.4 °F 27.0 °F 82% 30.51 in 10.0 mi NNW 5.8 mph - N/A   Overcast
6:53 AM 30.9 °F 25.2 °F 27.0 °F 85% 30.52 in 10.0 mi NNW 5.8 mph - N/A   Overcast
7:53 AM 30.9 °F 26.2 °F 27.0 °F 85% 30.52 in 10.0 mi North 4.6 mph - N/A   Overcast
8:53 AM 32.0 °F 27.5 °F 27.0 °F 82% 30.53 in 10.0 mi NNW 4.6 mph - N/A   Overcast
9:53 AM 32.0 °F 28.7 °F 26.1 °F 79% 30.54 in 10.0 mi North 3.5 mph - N/A   Overcast
10:53 AM 33.1 °F 28.7 °F 27.0 °F 78% 30.54 in 10.0 mi NNW 4.6 mph - N/A   Overcast
11:50 AM 33.8 °F 28.6 °F 26.6 °F 75% 30.51 in 10.0 mi NNW 5.8 mph - N/A   Overcast
11:53 AM 33.1 °F 28.7 °F 26.1 °F 75% 30.53 in 10.0 mi NNW 4.6 mph - N/A   Overcast
12:06 PM 33.8 °F 27.7 °F 26.6 °F 75% 30.50 in 10.0 mi NNE 6.9 mph - N/A   Overcast
12:48 PM 33.8 °F 28.6 °F 26.6 °F 75% 30.48 in 10.0 mi North 5.8 mph - N/A   Overcast
12:53 PM 33.1 °F 28.7 °F 26.1 °F 75% 30.51 in 10.0 mi NNW 4.6 mph - N/A   Overcast
1:53 PM 34.0 °F - 26.1 °F 73% 30.48 in 10.0 mi Calm Calm - N/A   Overcast
2:53 PM 35.1 °F - 25.0 °F 67% 30.46 in 10.0 mi Calm Calm - N/A   Overcast
3:20 PM 35.6 °F - 24.8 °F 65% 30.42 in 10.0 mi Calm Calm - N/A   Overcast
3:53 PM 34.0 °F - 25.0 °F 70% 30.44 in 10.0 mi Calm Calm - N/A   Overcast
4:30 PM 35.6 °F 32.8 °F 24.8 °F 65% 30.41 in 10.0 mi SE 3.5 mph - N/A   Overcast
4:53 PM 34.0 °F - 25.0 °F 70% 30.43 in 10.0 mi Calm Calm - N/A   Overcast
5:53 PM 34.0 °F - 25.0 °F 70% 30.42 in 10.0 mi Calm Calm - N/A   Overcast
6:14 PM 33.8 °F 30.8 °F 26.6 °F 75% 30.39 in 10.0 mi East 3.5 mph - N/A   Mostly Cloudy
6:53 PM 32.0 °F - 27.0 °F 82% 30.42 in 10.0 mi Calm Calm - N/A   Mostly Cloudy
7:53 PM 33.1 °F - 27.0 °F 78% 30.43 in 10.0 mi Calm Calm - N/A   Overcast
8:53 PM 33.1 °F - 28.0 °F 82% 30.43 in 10.0 mi Calm Calm - N/A   Overcast
9:32 PM 33.8 °F - 26.6 °F 75% 30.40 in 10.0 mi Calm Calm - N/A   Overcast
9:53 PM 34.0 °F - 26.1 °F 73% 30.42 in 10.0 mi Calm Calm - N/A   Overcast
10:53 PM 33.1 °F 28.7 °F 28.0 °F 82% 30.41 in 10.0 mi East 4.6 mph - N/A   Overcast
11:53 PM 33.1 °F - 27.0 °F 78% 30.41 in 10.0 mi Calm Calm - N/A   Overcast